Other Surface Observations
Issued by NWS Charleston, SC

Home | Current Version | Previous Version | Text Only | Print | Product List | Glossary On
Versions: 1 2 3 4 5 6 7 8 9 10 11 12 13 14 15 16 17 18 19 20 21 22 23 24 25 26 27 28 29 30 31 32 33 34 35 36 37 38 39 40 41 42 43 44 45 46 47 48 49 50
262
SXUS52 KCHS 300428
OSOCHS

MARINE OBSERVATIONS
NATIONAL WEATHER SERVICE CHARLESTON SC
1200 AM EDT MON MAY 30 2016

...DOWNTOWN CHARLESTON AND HARBOR...

CITY           SKY/WX    TMP DP  RH WIND       PRES   REMARKS
WATERFRONT PRK   N/A     71  69  93 VRB2      29.90S

...LAKE MOULTRIE...

CITY           SKY/WX    TMP DP  RH WIND       PRES   REMARKS
PINOPOLIS        N/A     73  70  88 E6        29.87R

...LAKE AND SUPPLEMENTAL COASTAL OBSERVATIONS...

STATION/POSITION TIME  TEMP    WIND        PRES    WAVE   SWELL
                       AIR SEA DIR/SP/G            HT/PER HT/PER/DIR
                 (UTC) (F)     (DEG/KT/KT) (MB)    (FT/S) (FT/S/D)
FORT PULASKI     0400   72 76  280/ 11/ 12 1015.4
SAPELO ISLAND    0400   76     270/  5     1016.0S
WINYAH BAY       0345   72     130/  8     1013.0S
LAKE MURRAY      0400   71     340/  2/  7 1015.6R
ACE BASIN NERRS  0300   70     280/  1     1014.0R


...C-MAN AND BUOY OBSERVATIONS...

STATION/POSITION TIME  TEMP    WIND        PRES    WAVE   SWELL
                       AIR SEA DIR/SP/G            HT/PER HT/PER/DIR
                 (UTC) (F)     (DEG/KT/KT) (MB)    (FT/S) (FT/S/D)
BUOY 41004       0350   73 77  190/ 19/ 23 1012.8F   6/ 7
BUOY 41008       0350   76 76  260/ 14/ 17 1015.5S   2/ 4   2/ 80/ 8
FOLLY BEACH CMAN 0400   71     360/  6/  7 1013.2S
CAPERS NS BUOY   0408   72 76  110/ 12/ 16 1012.5F
FRIPP NS BUOY    0408   71 75  280/ 16/ 23 1013.3R
5E ST. MARYS GA  0401      79                N/A     2/ 8


STATION/POSITION TIME  TEMP    WIND        PRES    WAVE   SWELL
                       AIR SEA DIR/SP/G            HT/PER HT/PER/DIR
                 (UTC) (F)     (DEG/KT/KT) (MB)    (FT/S) (FT/S/D)
FRYING PAN BUOY  0400   78 78  180/ 16/ 19 1015.0F
BUOY 41025       0350   78 81  160/ 21/ 27 1017.1F   5/ 8   2/300/19
CAPE LOOKOUT NC  0400   76     150/  9/ 10 1016.5F
BUOY 41002       0350   75 76  130/ 14/ 17 1017.7F   5/ 8   3/100/ 8
BUOY 41010       0320   78 79  150/  6/  8 1017.8F
ST AUGUSTINE FL  0400   75 80  220/  7/  8 1017.6F

$$




USA.gov is the U.S. government's official web portal to all federal, state and local government web resources and services.